Weather History for Versailles, OH

Change the Weather History Date:

Friday, September 13, 2013

  Actual Average (KDAY) Record (KDAY)
Temperature  
Mean Temperature 55 °F 67 °F  
Max Temperature 64 °F 77 °F 100 °F (1897)
Min Temperature 46 °F 56 °F 38 °F (1964)
Degree Days  
Heating Degree Days 10 2  
Month to date heating degree days 16  
Since 1 July heating degree days 18  
Cooling Degree Days 0 3  
Month to date cooling degree days 62  
Year to date cooling degree days 844  
Growing Degree Days 5 (Base 50)    
Moisture  
Dew Point 46 °F    
Average Humidity 73    
Maximum Humidity 100    
Minimum Humidity 42    
Precipitation  
Precipitation 0.00 in 0.12 in 2.54 in (1925)
Month to date precipitation 1.47  
Year to date precipitation 29.78  
Snow  
Snow 0.00 in 0.00 in 0.00 in ()
Month to date snowfall 0.0  
Since 1 July snowfall 0.0  
Since 1 September snowfall 0.0  
Snow Depth -    
Sea Level Pressure  
Sea Level Pressure 30.06 in    
Wind  
Wind Speed 8 mph (North)    
Max Wind Speed 16 mph    
Max Gust Speed 23 mph    
Visibility 10 miles    
Events      
T = Trace of Precipitation, MM = Missing Value Source: NWS Daily Summary

Daily Weather History Graph

Daily Weather History Graph

Search for Another Location

Airport:

Trip Planner

Search our weather history database for the weather conditions in past years. The results will help you decide how hot, cold, wet, or windy it might be!

Date:

Astronomy

Sep. 13, 2013 Rise Set
Actual Time 7:17 AM EDT 7:49 PM EDT
Civil Twilight 6:50 AM EDT 8:17 PM EDT
Nautical Twilight 6:17 AM EDT 8:49 PM EDT
Astronomical Twilight 5:44 AM EDT 9:22 PM EDT
Moon 3:39 PM EDT (9/13) 12:45 AM EDT (9/13)
Length of Visible Light 13h 27m
Length of Day
12h 32m
First Quarter, 61% of the Moon is Illuminated
Sep 13
First Quarter
Sep 19
Full
Sep 26
Last Quarter
Oct 4
New
Oct 11
First Quarter

Hourly Weather History & Observations

Time (EDT) Temp. Windchill Dew Point Humidity Pressure Visibility Wind Dir Wind Speed Gust Speed Precip Events Conditions
12:15 AM 59.0 °F - 59.0 °F 100% 29.98 in 10.0 mi NNE 8.1 mph - N/A   Mostly Cloudy
12:35 AM 59.0 °F - 57.2 °F 94% 29.98 in 10.0 mi North 6.9 mph - N/A   Clear
12:55 AM 59.0 °F - 57.2 °F 94% 29.98 in 10.0 mi North 4.6 mph - N/A   Clear
1:15 AM 57.2 °F - 55.4 °F 94% 29.99 in 10.0 mi North 5.8 mph - N/A   Clear
1:35 AM 57.2 °F - 55.4 °F 94% 29.99 in 10.0 mi North 4.6 mph - N/A   Clear
1:55 AM 55.4 °F - 55.4 °F 100% 30.00 in 10.0 mi North 8.1 mph - N/A   Clear
2:15 AM 55.4 °F - 53.6 °F 94% 30.00 in 10.0 mi North 5.8 mph - N/A   Clear
2:35 AM 55.4 °F - 53.6 °F 94% 30.00 in 10.0 mi North 8.1 mph - N/A   Clear
2:55 AM 53.6 °F - 53.6 °F 100% 30.00 in 10.0 mi North 6.9 mph - N/A   Clear
3:15 AM 53.6 °F - 51.8 °F 94% 30.00 in 10.0 mi North 6.9 mph - N/A   Clear
3:35 AM 53.6 °F - 51.8 °F 94% 30.00 in 10.0 mi North 5.8 mph - N/A   Clear
3:55 AM 51.8 °F - 51.8 °F 100% 30.01 in 10.0 mi North 4.6 mph - N/A   Clear
4:15 AM 51.8 °F - 51.8 °F 100% 30.01 in 10.0 mi NNW 4.6 mph - N/A   Clear
4:35 AM 51.8 °F - 50.0 °F 94% 30.02 in 10.0 mi NNW 3.5 mph - N/A   Clear
4:55 AM 51.8 °F - 50.0 °F 94% 30.02 in 10.0 mi NW 3.5 mph - N/A   Clear
5:15 AM 50.0 °F - 50.0 °F 100% 30.03 in 10.0 mi NNW 5.8 mph - N/A   Clear
5:35 AM 51.8 °F - 50.0 °F 94% 30.03 in 10.0 mi NNW 4.6 mph - N/A   Scattered Clouds
5:55 AM 50.0 °F - 50.0 °F 100% 30.03 in 10.0 mi NNW 4.6 mph - N/A   Clear
6:15 AM 50.0 °F - 50.0 °F 100% 30.03 in 10.0 mi NNW 3.5 mph - N/A   Scattered Clouds
6:35 AM 50.0 °F - 50.0 °F 100% 30.03 in 10.0 mi NW 3.5 mph - N/A   Scattered Clouds
6:55 AM 48.2 °F - 48.2 °F 100% 30.03 in 10.0 mi NNW 4.6 mph - N/A   Clear
7:15 AM 50.0 °F - 50.0 °F 100% 30.04 in 10.0 mi NNW 6.9 mph - N/A   Clear
7:35 AM 50.0 °F - 48.2 °F 94% 30.04 in 10.0 mi NNW 6.9 mph - N/A   Clear
7:55 AM 50.0 °F - 48.2 °F 94% 30.05 in 10.0 mi NNW 8.1 mph - N/A   Clear
8:15 AM 50.0 °F - 48.2 °F 94% 30.05 in 10.0 mi NNW 8.1 mph - N/A   Clear
8:35 AM 51.8 °F - 48.2 °F 88% 30.05 in 10.0 mi North 8.1 mph - N/A   Clear
8:55 AM 51.8 °F - 48.2 °F 88% 30.05 in 10.0 mi North 10.4 mph - N/A   Clear
9:15 AM 53.6 °F - 46.4 °F 77% 30.05 in 10.0 mi North 16.1 mph 19.6 mph N/A   Clear
9:35 AM 53.6 °F - 46.4 °F 77% 30.05 in 10.0 mi North 11.5 mph 23.0 mph N/A   Scattered Clouds
9:55 AM 55.4 °F - 44.6 °F 67% 30.06 in 10.0 mi North 13.8 mph 18.4 mph N/A   Clear
10:15 AM 55.4 °F - 44.6 °F 67% 30.07 in 10.0 mi NNW 13.8 mph 20.7 mph N/A   Scattered Clouds
10:35 AM 55.4 °F - 42.8 °F 63% 30.07 in 10.0 mi North 12.7 mph 19.6 mph N/A   Mostly Cloudy
10:55 AM 55.4 °F - 41.0 °F 58% 30.07 in 10.0 mi North 11.5 mph 23.0 mph N/A   Overcast
11:15 AM 55.4 °F - 42.8 °F 63% 30.08 in 10.0 mi North 11.5 mph - N/A   Overcast
11:35 AM 57.2 °F - 44.6 °F 63% 30.08 in 10.0 mi North 11.5 mph 17.3 mph N/A   Overcast
11:55 AM 55.4 °F - 44.6 °F 67% 30.08 in 10.0 mi North 8.1 mph - N/A   Overcast
12:15 PM 57.2 °F - 44.6 °F 63% 30.08 in 10.0 mi North 11.5 mph - N/A   Overcast
12:35 PM 59.0 °F - 44.6 °F 59% 30.08 in 10.0 mi North 9.2 mph - N/A   Overcast
12:55 PM 55.4 °F - 44.6 °F 67% 30.09 in 10.0 mi North 11.5 mph 18.4 mph N/A   Overcast
1:15 PM 59.0 °F - 44.6 °F 59% 30.09 in 10.0 mi NNE 10.4 mph 18.4 mph N/A   Overcast
1:35 PM 62.6 °F - 44.6 °F 52% 30.08 in 10.0 mi North 11.5 mph 16.1 mph N/A   Mostly Cloudy
1:55 PM 60.8 °F - 42.8 °F 52% 30.08 in 10.0 mi NNE 9.2 mph - N/A   Mostly Cloudy
2:15 PM 60.8 °F - 42.8 °F 52% 30.07 in 10.0 mi NNW 12.7 mph 18.4 mph N/A   Overcast
2:35 PM 60.8 °F - 42.8 °F 52% 30.07 in 10.0 mi NNW 9.2 mph - N/A   Overcast
2:55 PM 60.8 °F - 42.8 °F 52% 30.07 in 10.0 mi North 9.2 mph - N/A   Overcast
3:15 PM 60.8 °F - 42.8 °F 52% 30.06 in 10.0 mi North 8.1 mph - N/A   Overcast
3:35 PM 60.8 °F - 42.8 °F 52% 30.06 in 10.0 mi North 11.5 mph 17.3 mph N/A   Overcast
3:55 PM 60.8 °F - 42.8 °F 52% 30.05 in 10.0 mi NNW 10.4 mph - N/A   Overcast
4:15 PM 64.4 °F - 41.0 °F 42% 30.05 in 10.0 mi North 11.5 mph 16.1 mph N/A   Overcast
4:35 PM 62.6 °F - 41.0 °F 45% 30.05 in 10.0 mi North 11.5 mph 17.3 mph N/A   Overcast
4:55 PM 62.6 °F - 41.0 °F 45% 30.05 in 10.0 mi NNW 12.7 mph - N/A   Mostly Cloudy
5:15 PM 62.6 °F - 39.2 °F 42% 30.06 in 10.0 mi North 10.4 mph 20.7 mph N/A   Mostly Cloudy
5:35 PM 60.8 °F - 41.0 °F 48% 30.06 in 10.0 mi NNE 10.4 mph 16.1 mph N/A   Overcast
5:55 PM 60.8 °F - 41.0 °F 48% 30.06 in 10.0 mi North 11.5 mph - N/A   Overcast
6:15 PM 60.8 °F - 41.0 °F 48% 30.06 in 10.0 mi North 9.2 mph 16.1 mph N/A   Overcast
6:35 PM 60.8 °F - 41.0 °F 48% 30.07 in 10.0 mi North 10.4 mph - N/A   Overcast
6:55 PM 60.8 °F - 41.0 °F 48% 30.07 in 10.0 mi NNE 9.2 mph - N/A   Overcast
7:15 PM 59.0 °F - 41.0 °F 51% 30.07 in 10.0 mi NNE 9.2 mph - N/A   Overcast
7:35 PM 59.0 °F - 41.0 °F 51% 30.07 in 10.0 mi NNE 9.2 mph - N/A   Overcast
7:55 PM 57.2 °F - 41.0 °F 55% 30.08 in 10.0 mi North 8.1 mph - N/A   Overcast
8:15 PM 57.2 °F - 41.0 °F 55% 30.09 in 10.0 mi NNE 5.8 mph - N/A   Overcast
8:35 PM 55.4 °F - 41.0 °F 58% 30.09 in 10.0 mi NNE 9.2 mph - N/A   Overcast
8:55 PM 53.6 °F - 41.0 °F 62% 30.10 in 10.0 mi North 6.9 mph - N/A   Mostly Cloudy
9:15 PM 51.8 °F - 42.8 °F 71% 30.10 in 10.0 mi NNE 8.1 mph - N/A   Clear
9:35 PM 51.8 °F - 41.0 °F 67% 30.11 in 10.0 mi NNE 5.8 mph - N/A   Clear
9:55 PM 50.0 °F - 42.8 °F 76% 30.11 in 10.0 mi NNE 5.8 mph - N/A   Clear
10:15 PM 50.0 °F - 42.8 °F 76% 30.11 in 10.0 mi NNE 5.8 mph - N/A   Clear
10:35 PM 50.0 °F - 42.8 °F 76% 30.11 in 10.0 mi NNE 5.8 mph - N/A   Clear
10:55 PM 50.0 °F - 41.0 °F 71% 30.12 in 10.0 mi NNE 8.1 mph - N/A   Clear
11:15 PM 48.2 °F - 41.0 °F 76% 30.12 in 10.0 mi NNE 5.8 mph - N/A   Clear
11:35 PM 46.4 °F 44.3 °F 42.8 °F 87% 30.12 in 10.0 mi NNE 4.6 mph - N/A   Clear
11:55 PM 46.4 °F 44.3 °F 42.8 °F 87% 30.12 in 10.0 mi NNE 4.6 mph - N/A   Clear